Location: Zilina
(49.2170°N, 18.7330°E)
Time: 21:40:50
(UTC+01:00)

ISS - Visible Passes

Search period start: 09 December 2018 00:00
Search period end: 19 December 2018 00:00
Orbit: 401 x 408 km, 51.6° (Epoch: 10 December)

Date Brightness Start Highest point End Pass type
(mag) Time Alt. Az. Time Alt. Az. Time Alt. Az.
09 Dec -3.9 16:46:43 10° WNW 16:50:00 78° NNE 16:53:11 10° ESE visible
09 Dec -1.8 18:23:25 10° W 18:25:52 27° SW 18:25:52 27° SW visible
10 Dec -2.8 17:31:03 10° WNW 17:34:11 44° SSW 17:36:18 18° SE visible
11 Dec -3.5 16:38:46 10° WNW 16:42:02 67° SSW 16:45:16 10° ESE visible
11 Dec -0.9 18:16:07 10° WSW 18:18:02 15° SW 18:19:41 11° S visible
12 Dec -1.4 17:23:20 10° W 17:26:01 23° SW 17:28:41 10° SSE visible
13 Dec -2.2 16:30:52 10° W 16:33:55 37° SSW 16:36:57 10° SE visible
14 Dec -0.5 17:16:15 10° WSW 17:17:40 12° SW 17:19:05 10° SSW visible
15 Dec -0.8 16:23:10 10° W 16:25:38 20° SW 16:28:06 10° S visible
